Regional Weather Roundup
Issued by NWS

Home | Current Version | Previous Version | Text Only | Print | Product List | Glossary On
Versions: 1 2 3 4 5 6 7 8 9 10 11 12 13 14 15 16 17 18 19 20 21 22 23 24 25 26 27 28 29 30 31 32 33 34 35 36 37 38 39 40 41 42 43 44 45 46 47 48 49 50
000
ASUS43 KTOP 191359
RWRKS

WEATHER ROUNDUP FOR KANSAS
NATIONAL WEATHER SERVICE GOODLAND KS
900 AM CDT THU APR 19 2018

NOTE:  "FAIR" INDICATES FEW OR NO CLOUDS BELOW 12,000 FEET WITH NO
SIGNIFICANT WEATHER AND/OR OBSTRUCTIONS TO VISIBILITY.

KSZ001>006-013>018-027>032-041>047-191500-
NORTHWEST KANSAS

CITY           SKY/WX    TMP DP  RH WIND       PRES   REMARKS
GOODLAND       SUNNY     41  30  65 S8        30.39R
HAYS           SUNNY     41  31  67 NE13      30.45R
HILL CITY      SUNNY     38  30  73 CALM      30.46R
RUSSELL        SUNNY     39  32  76 NE10      30.45R WCI  32
$$

KSZ061>065-074>080-084>089-191500-
SOUTHWEST KANSAS

CITY           SKY/WX    TMP DP  RH WIND       PRES   REMARKS
DODGE CITY     SUNNY     42  28  57 NE7       30.43R
GARDEN CITY    SUNNY     43  28  55 CALM      30.41R
GREAT BEND     SUNNY     41  31  67 N12       30.45R
LIBERAL        SUNNY     46  27  47 SE7       30.41R
$$

KSZ066>073-081>083-090>101-191500-
SOUTHEAST KANSAS

CITY           SKY/WX    TMP DP  RH WIND       PRES   REMARKS
CHANUTE        CLOUDY    41  31  67 N13       30.42R
COFFEYVILLE    MOSUNNY   44  32  62 N13       30.41R
HUTCHINSON     SUNNY     40  32  73 N13       30.44R WCI  32
MEDICINE LODGE   N/A     43  31  62 N5        30.43R
NEWTON         SUNNY     40  30  67 N15       30.44R WCI  32
PARSONS        MOSUNNY   43  33  68 N9        30.42R
WICHITA INTL   MOSUNNY   42  32  67 N14       30.44R
WICHITA JABRA  SUNNY     42  32  67 N15       30.43R
WICHITA MCCONL SUNNY     42  30  64 N14       30.43R
WINFIELD       SUNNY     43  33  68 N20       30.43R
$$

KSZ007>012-019>026-033>040-048>060-102>105-191500-
NORTHEAST KANSAS

CITY           SKY/WX    TMP DP  RH WIND       PRES   REMARKS
CONCORDIA      SUNNY     38  32  79 N7        30.46R
EMPORIA        SUNNY     38  29  70 N12       30.43R WCI  30
LAWRENCE       SUNNY     40  30  67 N10       30.44R WCI  33
MANHATTAN      SUNNY     40  31  70 N8        30.46R
OLATHE IND     SUNNY     39  30  70 N9        30.43R
OLATHE EXE     MOSUNNY   38  29  70 N8        30.42R
SALINA         SUNNY     41  32  70 N10       30.47R
TOPEKA BILLARD SUNNY     40  32  73 N10       30.44R WCI  33
TOPEKA FORBES  SUNNY     39  29  67 N12       30.44R WCI  32
$$




USA.gov is the U.S. government's official web portal to all federal, state and local government web resources and services.